Year,Month,Day,Hour,Minute,Value (Times are PST for temperature in C)
2009,05,23,00,00,11.50
2009,05,23,00,01,11.40
2009,05,23,00,02,11.40
2009,05,23,00,03,11.40
2009,05,23,00,04,11.40
2009,05,23,00,05,11.40
2009,05,23,00,06,11.40
2009,05,23,00,07,11.50
2009,05,23,00,08,11.60
2009,05,23,00,09,11.60
2009,05,23,00,10,11.60
2009,05,23,00,11,11.60
2009,05,23,00,12,11.60
2009,05,23,00,13,11.60
2009,05,23,00,14,11.60
2009,05,23,00,15,11.60
2009,05,23,00,16,11.60
2009,05,23,00,17,11.60
2009,05,23,00,18,11.50
2009,05,23,00,19,11.40
2009,05,23,00,20,11.40
2009,05,23,00,21,11.40
2009,05,23,00,22,11.40
2009,05,23,00,23,11.40
2009,05,23,00,24,11.40
2009,05,23,00,25,11.40
2009,05,23,00,26,11.40
2009,05,23,00,27,11.40
2009,05,23,00,28,11.30
2009,05,23,00,29,11.20
2009,05,23,00,30,11.20
2009,05,23,00,31,11.10
2009,05,23,00,32,11.10
2009,05,23,00,33,11.10
2009,05,23,00,34,11.00
2009,05,23,00,35,10.90
2009,05,23,00,36,10.90
2009,05,23,00,37,10.90
2009,05,23,00,38,10.90
2009,05,23,00,39,10.80
2009,05,23,00,40,10.80
2009,05,23,00,41,10.80
2009,05,23,00,42,10.70
2009,05,23,00,43,10.70
2009,05,23,00,44,10.60
2009,05,23,00,45,10.60
2009,05,23,00,46,10.50
2009,05,23,00,47,10.40
2009,05,23,00,48,10.40
2009,05,23,00,49,10.40
2009,05,23,00,50,10.30
2009,05,23,00,51,10.30
2009,05,23,00,52,10.20
2009,05,23,00,53,10.20
2009,05,23,00,54,10.20
2009,05,23,00,55,10.10
2009,05,23,00,56,10.10
2009,05,23,00,57,10.10
2009,05,23,00,58,10.10
2009,05,23,00,59,10.10
2009,05,23,01,00,10.10
2009,05,23,01,01,10.10
2009,05,23,01,02,10.10
2009,05,23,01,03,10.10
2009,05,23,01,04,10.00
2009,05,23,01,05,9.90
2009,05,23,01,06,9.90
2009,05,23,01,07,9.90
2009,05,23,01,08,9.90
2009,05,23,01,09,9.90
2009,05,23,01,10,9.90
2009,05,23,01,11,9.90
2009,05,23,01,12,9.90
2009,05,23,01,13,9.90
2009,05,23,01,14,9.90
2009,05,23,01,15,9.80
2009,05,23,01,16,9.80
2009,05,23,01,17,9.80
2009,05,23,01,18,9.80
2009,05,23,01,19,9.80
2009,05,23,01,20,9.80
2009,05,23,01,21,9.70
2009,05,23,01,22,9.70
2009,05,23,01,23,9.70
2009,05,23,01,24,9.70
2009,05,23,01,25,9.70
2009,05,23,01,26,9.70
2009,05,23,01,27,9.70
2009,05,23,01,28,9.70
2009,05,23,01,29,9.70
2009,05,23,01,30,9.70
2009,05,23,01,31,9.70
2009,05,23,01,32,9.70
2009,05,23,01,33,9.60
2009,05,23,01,34,9.60
2009,05,23,01,35,9.60
2009,05,23,01,36,9.60
2009,05,23,01,37,9.60
2009,05,23,01,38,9.60
2009,05,23,01,39,9.50
2009,05,23,01,40,9.50
2009,05,23,01,41,9.50
2009,05,23,01,42,9.50
2009,05,23,01,43,9.40
2009,05,23,01,44,9.40
2009,05,23,01,45,9.40
2009,05,23,01,46,9.40
2009,05,23,01,47,9.40
2009,05,23,01,48,9.40
2009,05,23,01,49,9.30
2009,05,23,01,50,9.30
2009,05,23,01,51,9.30
2009,05,23,01,52,9.30
2009,05,23,01,53,9.30
2009,05,23,01,54,9.30
2009,05,23,01,55,9.30
2009,05,23,01,56,9.20
2009,05,23,01,57,9.20
2009,05,23,01,58,9.20
2009,05,23,01,59,9.20
2009,05,23,02,00,9.20
2009,05,23,02,01,9.20
2009,05,23,02,02,9.20
2009,05,23,02,03,9.20
2009,05,23,02,04,9.20
2009,05,23,02,05,9.20
2009,05,23,02,06,9.20
2009,05,23,02,07,9.20
2009,05,23,02,08,9.20
2009,05,23,02,09,9.20
2009,05,23,02,10,9.20
2009,05,23,02,11,9.20
2009,05,23,02,12,9.20
2009,05,23,02,13,9.20
2009,05,23,02,14,9.20
2009,05,23,02,15,9.10
2009,05,23,02,16,9.10
2009,05,23,02,17,9.10
2009,05,23,02,18,9.10
2009,05,23,02,19,9.10
2009,05,23,02,20,9.10
2009,05,23,02,21,9.10
2009,05,23,02,22,9.10
2009,05,23,02,23,9.10
2009,05,23,02,24,9.10
2009,05,23,02,25,9.20
2009,05,23,02,26,9.20
2009,05,23,02,27,9.20
2009,05,23,02,28,9.20
2009,05,23,02,29,9.20
2009,05,23,02,30,9.20
2009,05,23,02,31,9.20
2009,05,23,02,32,9.20
2009,05,23,02,33,9.20
2009,05,23,02,34,9.20
2009,05,23,02,35,9.20
2009,05,23,02,36,9.20
2009,05,23,02,37,9.20
2009,05,23,02,38,9.20
2009,05,23,02,39,9.20
2009,05,23,02,40,9.20
2009,05,23,02,41,9.20
2009,05,23,02,42,9.20
2009,05,23,02,43,9.20
2009,05,23,02,44,9.10
2009,05,23,02,45,9.10
2009,05,23,02,46,9.10
2009,05,23,02,47,9.10
2009,05,23,02,48,9.10
2009,05,23,02,49,9.10
2009,05,23,02,50,9.10
2009,05,23,02,51,9.00
2009,05,23,02,52,9.00
2009,05,23,02,53,9.00
2009,05,23,02,54,9.00
2009,05,23,02,55,9.00
2009,05,23,02,56,9.00
2009,05,23,02,57,8.90
2009,05,23,02,58,8.90
2009,05,23,02,59,8.90
2009,05,23,03,00,8.90
2009,05,23,03,01,8.90
2009,05,23,03,02,8.90
2009,05,23,03,03,8.90
2009,05,23,03,04,8.80
2009,05,23,03,05,8.80
2009,05,23,03,06,8.80
2009,05,23,03,07,8.80
2009,05,23,03,08,8.80
2009,05,23,03,09,8.80
2009,05,23,03,10,8.80
2009,05,23,03,11,8.80
2009,05,23,03,12,8.80
2009,05,23,03,13,8.80
2009,05,23,03,14,8.90
2009,05,23,03,15,8.90
2009,05,23,03,16,8.90
2009,05,23,03,17,8.90
2009,05,23,03,18,8.90
2009,05,23,03,19,8.90
2009,05,23,03,20,8.90
2009,05,23,03,21,8.90
2009,05,23,03,22,8.90
2009,05,23,03,23,8.90
2009,05,23,03,24,8.90
2009,05,23,03,25,8.90
2009,05,23,03,26,8.90
2009,05,23,03,27,8.90
2009,05,23,03,28,8.90
2009,05,23,03,29,8.90
2009,05,23,03,30,8.90
2009,05,23,03,31,8.80
2009,05,23,03,32,8.80
2009,05,23,03,33,8.80
2009,05,23,03,34,8.80
2009,05,23,03,35,8.80
2009,05,23,03,36,8.80
2009,05,23,03,37,8.80
2009,05,23,03,38,8.80
2009,05,23,03,39,8.80
2009,05,23,03,40,8.80
2009,05,23,03,41,8.80
2009,05,23,03,42,8.80
2009,05,23,03,43,8.80
2009,05,23,03,44,8.80
2009,05,23,03,45,8.80
2009,05,23,03,46,8.80
2009,05,23,03,47,8.80
2009,05,23,03,48,8.70
2009,05,23,03,49,8.70
2009,05,23,03,50,8.70
2009,05,23,03,51,8.70
2009,05,23,03,52,8.70
2009,05,23,03,53,8.70
2009,05,23,03,54,8.70
2009,05,23,03,55,8.70
2009,05,23,03,56,8.70
2009,05,23,03,57,8.70
2009,05,23,03,58,8.70
2009,05,23,03,59,8.70
2009,05,23,04,00,8.60
2009,05,23,04,01,8.60
2009,05,23,04,02,8.60
2009,05,23,04,03,8.60
2009,05,23,04,04,8.60
2009,05,23,04,05,8.60
2009,05,23,04,06,8.50
2009,05,23,04,07,8.50
2009,05,23,04,08,8.50
2009,05,23,04,09,8.40
2009,05,23,04,10,8.40
2009,05,23,04,11,8.40
2009,05,23,04,12,8.40
2009,05,23,04,13,8.40
2009,05,23,04,14,8.30
2009,05,23,04,15,8.30
2009,05,23,04,16,8.30
2009,05,23,04,17,8.30
2009,05,23,04,18,8.30
2009,05,23,04,19,8.20
2009,05,23,04,20,8.20
2009,05,23,04,21,8.20
2009,05,23,04,22,8.20
2009,05,23,04,23,8.20
2009,05,23,04,24,8.20
2009,05,23,04,25,8.20
2009,05,23,04,26,8.20
2009,05,23,04,27,8.20
2009,05,23,04,28,8.20
2009,05,23,04,29,8.20
2009,05,23,04,30,8.20
2009,05,23,04,31,8.20
2009,05,23,04,32,8.20
2009,05,23,04,33,8.20
2009,05,23,04,34,8.20
2009,05,23,04,35,8.20
2009,05,23,04,36,8.20
2009,05,23,04,37,8.20
2009,05,23,04,38,8.20
2009,05,23,04,39,8.20
2009,05,23,04,40,8.20
2009,05,23,04,41,8.20
2009,05,23,04,42,8.20
2009,05,23,04,43,8.20
2009,05,23,04,44,8.20
2009,05,23,04,45,8.20
2009,05,23,04,46,8.20
2009,05,23,04,47,8.20
2009,05,23,04,48,8.20
2009,05,23,04,49,8.20
2009,05,23,04,50,8.20
2009,05,23,04,51,8.20
2009,05,23,04,52,8.20
2009,05,23,04,53,8.20
2009,05,23,04,54,8.20
2009,05,23,04,55,8.20
2009,05,23,04,56,8.20
2009,05,23,04,57,8.20
2009,05,23,04,58,8.20
2009,05,23,04,59,8.20
2009,05,23,05,00,8.20
2009,05,23,05,01,8.20
2009,05,23,05,02,8.20
2009,05,23,05,03,8.20
2009,05,23,05,04,8.20
2009,05,23,05,05,8.20
2009,05,23,05,06,8.20
2009,05,23,05,07,8.20
2009,05,23,05,08,8.10
2009,05,23,05,09,8.10
2009,05,23,05,10,8.10
2009,05,23,05,11,8.10
2009,05,23,05,12,8.10
2009,05,23,05,13,8.10
2009,05,23,05,14,8.00
2009,05,23,05,15,8.00
2009,05,23,05,16,8.00
2009,05,23,05,17,8.00
2009,05,23,05,18,8.00
2009,05,23,05,19,8.00
2009,05,23,05,20,8.00
2009,05,23,05,21,8.00
2009,05,23,05,22,8.00
2009,05,23,05,23,8.00
2009,05,23,05,24,8.00
2009,05,23,05,25,8.00
2009,05,23,05,26,8.00
2009,05,23,05,27,8.10
2009,05,23,05,28,8.10
2009,05,23,05,29,8.10
2009,05,23,05,30,8.10
2009,05,23,05,31,8.10
2009,05,23,05,32,8.10
2009,05,23,05,33,8.10
2009,05,23,05,34,8.10
2009,05,23,05,35,8.10
2009,05,23,05,36,8.10
2009,05,23,05,37,8.10
2009,05,23,05,38,8.00
2009,05,23,05,39,8.00
2009,05,23,05,40,8.00
2009,05,23,05,41,8.00
2009,05,23,05,42,8.00
2009,05,23,05,43,8.00
2009,05,23,05,44,8.00
2009,05,23,05,45,8.10
2009,05,23,05,46,8.10
2009,05,23,05,47,8.20
2009,05,23,05,48,8.20
2009,05,23,05,49,8.20
2009,05,23,05,50,8.20
2009,05,23,05,51,8.30
2009,05,23,05,52,8.30
2009,05,23,05,53,8.30
2009,05,23,05,54,8.30
2009,05,23,05,55,8.30
2009,05,23,05,56,8.40
2009,05,23,05,57,8.40
2009,05,23,05,58,8.40
2009,05,23,05,59,8.40
2009,05,23,06,00,8.40
2009,05,23,06,01,8.40
2009,05,23,06,02,8.40
2009,05,23,06,03,8.40
2009,05,23,06,04,8.40
2009,05,23,06,05,8.50
2009,05,23,06,06,8.50
2009,05,23,06,07,8.50
2009,05,23,06,08,8.50
2009,05,23,06,09,8.50
2009,05,23,06,10,8.60
2009,05,23,06,11,8.60
2009,05,23,06,12,8.70
2009,05,23,06,13,8.70
2009,05,23,06,14,8.70
2009,05,23,06,15,8.80
2009,05,23,06,16,9.00
2009,05,23,06,17,9.10
2009,05,23,06,18,9.20
2009,05,23,06,19,9.30
2009,05,23,06,20,9.40
2009,05,23,06,21,9.50
2009,05,23,06,22,9.50
2009,05,23,06,23,9.60
2009,05,23,06,24,9.70
2009,05,23,06,25,9.70
2009,05,23,06,26,9.70
2009,05,23,06,27,9.80
2009,05,23,06,28,9.80
2009,05,23,06,29,9.90
2009,05,23,06,30,9.90
2009,05,23,06,31,9.90
2009,05,23,06,32,9.90
2009,05,23,06,33,10.00
2009,05,23,06,34,10.10
2009,05,23,06,35,10.10
2009,05,23,06,36,10.10
2009,05,23,06,37,10.20
2009,05,23,06,38,10.20
2009,05,23,06,39,10.20
2009,05,23,06,40,10.30
2009,05,23,06,41,10.30
2009,05,23,06,42,10.30
2009,05,23,06,43,10.20
2009,05,23,06,44,10.20
2009,05,23,06,45,10.20
2009,05,23,06,46,10.20
2009,05,23,06,47,10.10
2009,05,23,06,48,10.10
2009,05,23,06,49,10.20
2009,05,23,06,50,10.20
2009,05,23,06,51,10.20
2009,05,23,06,52,10.30
2009,05,23,06,53,10.30
2009,05,23,06,54,10.40
2009,05,23,06,55,10.40
2009,05,23,06,56,10.40
2009,05,23,06,57,10.60
2009,05,23,06,58,10.60
2009,05,23,06,59,10.70
2009,05,23,07,00,10.70
2009,05,23,07,01,10.80
2009,05,23,07,02,10.80
2009,05,23,07,03,10.80
2009,05,23,07,04,10.80
2009,05,23,07,05,10.80
2009,05,23,07,06,10.80
2009,05,23,07,07,10.80
2009,05,23,07,08,10.80
2009,05,23,07,09,10.80
2009,05,23,07,10,10.80
2009,05,23,07,11,10.80
2009,05,23,07,12,10.90
2009,05,23,07,13,10.90
2009,05,23,07,14,10.90
2009,05,23,07,15,10.90
2009,05,23,07,16,10.90
2009,05,23,07,17,10.90
2009,05,23,07,18,10.90
2009,05,23,07,19,10.90
2009,05,23,07,20,10.90
2009,05,23,07,21,11.10
2009,05,23,07,22,11.10
2009,05,23,07,23,11.10
2009,05,23,07,24,11.10
2009,05,23,07,25,11.10
2009,05,23,07,26,11.10
2009,05,23,07,27,11.10
2009,05,23,07,28,11.20
2009,05,23,07,29,11.20
2009,05,23,07,30,11.20
2009,05,23,07,31,11.20
2009,05,23,07,32,11.20
2009,05,23,07,33,11.20
2009,05,23,07,34,11.10
2009,05,23,07,35,11.10
2009,05,23,07,36,11.10
2009,05,23,07,37,11.10
2009,05,23,07,38,11.10
2009,05,23,07,39,11.10
2009,05,23,07,40,11.20
2009,05,23,07,41,11.20
2009,05,23,07,42,11.20
2009,05,23,07,43,11.20
2009,05,23,07,44,11.30
2009,05,23,07,45,11.20
2009,05,23,07,46,11.20
2009,05,23,07,47,11.30
2009,05,23,07,48,11.30
2009,05,23,07,49,11.30
2009,05,23,07,50,11.30
2009,05,23,07,51,11.30
2009,05,23,07,52,11.40
2009,05,23,07,53,11.40
2009,05,23,07,54,11.40
2009,05,23,07,55,11.50
2009,05,23,07,56,11.60
2009,05,23,07,57,11.60
2009,05,23,07,58,11.60
2009,05,23,07,59,11.60
2009,05,23,08,00,11.70
2009,05,23,08,01,11.70
2009,05,23,08,02,11.60
2009,05,23,08,03,11.60
2009,05,23,08,04,11.60
2009,05,23,08,05,11.60
2009,05,23,08,06,11.70
2009,05,23,08,07,11.70
2009,05,23,08,08,11.70
2009,05,23,08,09,11.70
2009,05,23,08,10,11.80
2009,05,23,08,11,11.80
2009,05,23,08,12,11.80
2009,05,23,08,13,11.80
2009,05,23,08,14,11.80
2009,05,23,08,15,11.80
2009,05,23,08,16,11.80
2009,05,23,08,17,11.80
2009,05,23,08,18,11.80
2009,05,23,08,19,11.80
2009,05,23,08,20,11.80
2009,05,23,08,21,11.80
2009,05,23,08,22,11.80
2009,05,23,08,23,11.80
2009,05,23,08,24,11.80
2009,05,23,08,25,11.70
2009,05,23,08,26,11.70
2009,05,23,08,27,11.70
2009,05,23,08,28,11.70
2009,05,23,08,29,11.80
2009,05,23,08,30,11.80
2009,05,23,08,31,11.80
2009,05,23,08,32,11.80
2009,05,23,08,33,11.80
2009,05,23,08,34,11.80
2009,05,23,08,35,11.80
2009,05,23,08,36,11.90
2009,05,23,08,37,11.90
2009,05,23,08,38,11.90
2009,05,23,08,39,11.90
2009,05,23,08,40,11.90
2009,05,23,08,41,11.90
2009,05,23,08,42,11.90
2009,05,23,08,43,11.80
2009,05,23,08,44,11.80
2009,05,23,08,45,11.90
2009,05,23,08,46,12.00
2009,05,23,08,47,12.10
2009,05,23,08,48,12.10
2009,05,23,08,49,12.10
2009,05,23,08,50,12.20
2009,05,23,08,51,12.20
2009,05,23,08,52,12.30
2009,05,23,08,53,12.30
2009,05,23,08,54,12.30
2009,05,23,08,55,12.40
2009,05,23,08,56,12.40
2009,05,23,08,57,12.50
2009,05,23,08,58,12.50
2009,05,23,08,59,12.60
2009,05,23,09,00,12.60
2009,05,23,09,01,12.70
2009,05,23,09,02,12.70
2009,05,23,09,03,12.70
2009,05,23,09,04,12.70
2009,05,23,09,05,12.70
2009,05,23,09,06,12.60
2009,05,23,09,07,12.60
2009,05,23,09,08,12.60
2009,05,23,09,09,12.60
2009,05,23,09,10,12.70
2009,05,23,09,11,12.70
2009,05,23,09,12,12.80
2009,05,23,09,13,12.90
2009,05,23,09,14,13.00
2009,05,23,09,15,13.00
2009,05,23,09,16,13.00
2009,05,23,09,17,13.00
2009,05,23,09,18,13.00
2009,05,23,09,19,13.00
2009,05,23,09,20,13.00
2009,05,23,09,21,13.00
2009,05,23,09,22,13.10
2009,05,23,09,23,13.10
2009,05,23,09,24,13.10
2009,05,23,09,25,13.10
2009,05,23,09,26,13.10
2009,05,23,09,27,13.10
2009,05,23,09,28,13.20
2009,05,23,09,29,13.30
2009,05,23,09,30,13.30
2009,05,23,09,31,13.30
2009,05,23,09,32,13.30
2009,05,23,09,33,13.40
2009,05,23,09,34,13.40
2009,05,23,09,35,13.40
2009,05,23,09,36,13.50
2009,05,23,09,37,13.60
2009,05,23,09,38,13.60
2009,05,23,09,39,13.60
2009,05,23,09,40,13.60
2009,05,23,09,41,13.60
2009,05,23,09,42,13.60
2009,05,23,09,43,13.60
2009,05,23,09,44,13.70
2009,05,23,09,45,13.70
2009,05,23,09,46,13.70
2009,05,23,09,47,13.70
2009,05,23,09,48,13.70
2009,05,23,09,49,13.70
2009,05,23,09,50,13.60
2009,05,23,09,51,13.60
2009,05,23,09,52,13.50
2009,05,23,09,53,13.40
2009,05,23,09,54,13.40
2009,05,23,09,55,13.40
2009,05,23,09,56,13.50
2009,05,23,09,57,13.50
2009,05,23,09,58,13.60
2009,05,23,09,59,13.60
2009,05,23,10,00,13.60
2009,05,23,10,01,13.50
2009,05,23,10,02,13.50
2009,05,23,10,03,13.60
2009,05,23,10,04,13.60
2009,05,23,10,05,13.60
2009,05,23,10,06,13.50
2009,05,23,10,07,13.50
2009,05,23,10,08,13.50
2009,05,23,10,09,13.50
2009,05,23,10,10,13.40
2009,05,23,10,11,13.30
2009,05,23,10,12,13.20
2009,05,23,10,13,13.10
2009,05,23,10,14,13.10
2009,05,23,10,15,13.10
2009,05,23,10,16,13.10
2009,05,23,10,17,13.20
2009,05,23,10,18,13.30
2009,05,23,10,19,13.40
2009,05,23,10,20,13.50
2009,05,23,10,21,13.60
2009,05,23,10,22,13.60
2009,05,23,10,23,13.50
2009,05,23,10,24,13.50
2009,05,23,10,25,13.50
2009,05,23,10,26,13.50
2009,05,23,10,27,13.60
2009,05,23,10,28,13.70
2009,05,23,10,29,13.70
2009,05,23,10,30,13.70
2009,05,23,10,31,13.70
2009,05,23,10,32,13.80
2009,05,23,10,33,13.90
2009,05,23,10,34,14.00
2009,05,23,10,35,14.00
2009,05,23,10,36,14.20
2009,05,23,10,37,14.20
2009,05,23,10,38,14.20
2009,05,23,10,39,14.20
2009,05,23,10,40,14.20
2009,05,23,10,41,14.20
2009,05,23,10,42,14.20
2009,05,23,10,43,14.20
2009,05,23,10,44,14.20
2009,05,23,10,45,14.20
2009,05,23,10,46,14.20
2009,05,23,10,47,14.20
2009,05,23,10,48,14.20
2009,05,23,10,49,14.10
2009,05,23,10,50,14.10
2009,05,23,10,51,14.10
2009,05,23,10,52,14.10
2009,05,23,10,53,14.10
2009,05,23,10,54,14.10
2009,05,23,10,55,14.00
2009,05,23,10,56,14.00
2009,05,23,10,57,14.00
2009,05,23,10,58,14.00
2009,05,23,10,59,14.00
2009,05,23,11,00,14.00
2009,05,23,11,01,14.10
2009,05,23,11,02,14.20
2009,05,23,11,03,14.20
2009,05,23,11,04,14.20
2009,05,23,11,05,14.20
2009,05,23,11,06,14.20
2009,05,23,11,07,14.20
2009,05,23,11,08,14.20
2009,05,23,11,09,14.20
2009,05,23,11,10,14.20
2009,05,23,11,11,14.20
2009,05,23,11,12,14.20
2009,05,23,11,13,14.20
2009,05,23,11,14,14.30
2009,05,23,11,15,14.40
2009,05,23,11,16,14.50
2009,05,23,11,17,14.60
2009,05,23,11,18,14.70
2009,05,23,11,19,14.80
2009,05,23,11,20,14.70
2009,05,23,11,21,14.60
2009,05,23,11,22,14.60
2009,05,23,11,23,14.50
2009,05,23,11,24,14.50
2009,05,23,11,25,14.50
2009,05,23,11,26,14.40
2009,05,23,11,27,14.40
2009,05,23,11,28,14.40
2009,05,23,11,29,14.40
2009,05,23,11,30,14.40
2009,05,23,11,31,14.50
2009,05,23,11,32,14.50
2009,05,23,11,33,14.60
2009,05,23,11,34,14.60
2009,05,23,11,35,14.60
2009,05,23,11,36,14.50
2009,05,23,11,37,14.50
2009,05,23,11,38,14.70
2009,05,23,11,39,14.80
2009,05,23,11,40,15.00
2009,05,23,11,41,15.00
2009,05,23,11,42,15.00
2009,05,23,11,43,15.00
2009,05,23,11,44,15.00
2009,05,23,11,45,14.90
2009,05,23,11,46,15.00
2009,05,23,11,47,15.00
2009,05,23,11,48,15.00
2009,05,23,11,49,15.00
2009,05,23,11,50,14.90
2009,05,23,11,51,14.80
2009,05,23,11,52,14.80
2009,05,23,11,53,14.80
2009,05,23,11,54,14.70
2009,05,23,11,55,14.70
2009,05,23,11,56,14.60
2009,05,23,11,57,14.60
2009,05,23,11,58,14.50
2009,05,23,11,59,14.50
2009,05,23,12,00,14.50
2009,05,23,12,01,14.50
2009,05,23,12,02,14.60
2009,05,23,12,03,14.60
2009,05,23,12,04,14.70
2009,05,23,12,05,14.70
2009,05,23,12,06,14.80
2009,05,23,12,07,14.80
2009,05,23,12,08,14.80
2009,05,23,12,09,14.90
2009,05,23,12,10,14.90
2009,05,23,12,11,14.90
2009,05,23,12,12,14.90
2009,05,23,12,13,14.90
2009,05,23,12,14,14.90
2009,05,23,12,15,15.00
2009,05,23,12,16,15.00
2009,05,23,12,17,15.00
2009,05,23,12,18,15.00
2009,05,23,12,19,14.90
2009,05,23,12,20,14.90
2009,05,23,12,21,14.70
2009,05,23,12,22,14.60
2009,05,23,12,23,14.40
2009,05,23,12,24,14.30
2009,05,23,12,25,14.30
2009,05,23,12,26,14.30
2009,05,23,12,27,14.40
2009,05,23,12,28,14.50
2009,05,23,12,29,14.60
2009,05,23,12,30,14.70
2009,05,23,12,31,14.80
2009,05,23,12,32,15.00
2009,05,23,12,33,15.10
2009,05,23,12,34,15.10
2009,05,23,12,35,15.10
2009,05,23,12,36,15.10
2009,05,23,12,37,15.10
2009,05,23,12,38,15.10
2009,05,23,12,39,15.00
2009,05,23,12,40,15.00
2009,05,23,12,41,14.90
2009,05,23,12,42,14.80
2009,05,23,12,43,14.70
2009,05,23,12,44,14.70
2009,05,23,12,45,14.70
2009,05,23,12,46,14.70
2009,05,23,12,47,14.60
2009,05,23,12,48,14.60
2009,05,23,12,49,14.60
2009,05,23,12,50,14.60
2009,05,23,12,51,14.70
2009,05,23,12,52,14.80
2009,05,23,12,53,15.00
2009,05,23,12,54,15.00
2009,05,23,12,55,15.10
2009,05,23,12,56,15.20
2009,05,23,12,57,15.30
2009,05,23,12,58,15.40
2009,05,23,12,59,15.40
2009,05,23,13,00,15.50
2009,05,23,13,01,15.50
2009,05,23,13,02,15.50
2009,05,23,13,03,15.60
2009,05,23,13,04,15.60
2009,05,23,13,05,15.60
2009,05,23,13,06,15.70
2009,05,23,13,07,15.70
2009,05,23,13,08,15.60
2009,05,23,13,09,15.60
2009,05,23,13,10,15.50
2009,05,23,13,11,15.40
2009,05,23,13,12,15.40
2009,05,23,13,13,15.40
2009,05,23,13,14,15.30
2009,05,23,13,15,15.30
2009,05,23,13,16,15.40
2009,05,23,13,17,15.50
2009,05,23,13,18,15.50
2009,05,23,13,19,15.40
2009,05,23,13,20,15.40
2009,05,23,13,21,15.30
2009,05,23,13,22,15.30
2009,05,23,13,23,15.30
2009,05,23,13,24,15.30
2009,05,23,13,25,15.30
2009,05,23,13,26,15.40
2009,05,23,13,27,15.50
2009,05,23,13,28,15.60
2009,05,23,13,29,15.60
2009,05,23,13,30,15.60
2009,05,23,13,31,15.60
2009,05,23,13,32,15.70
2009,05,23,13,33,15.70
2009,05,23,13,34,15.80
2009,05,23,13,35,15.80
2009,05,23,13,36,15.80
2009,05,23,13,37,15.80
2009,05,23,13,38,15.80
2009,05,23,13,39,15.80
2009,05,23,13,40,15.80
2009,05,23,13,41,15.80
2009,05,23,13,42,15.80
2009,05,23,13,43,15.80
2009,05,23,13,44,15.80
2009,05,23,13,45,15.70
2009,05,23,13,46,15.70
2009,05,23,13,47,15.60
2009,05,23,13,48,15.60
2009,05,23,13,49,15.70
2009,05,23,13,50,15.70
2009,05,23,13,51,15.80
2009,05,23,13,52,16.00
2009,05,23,13,53,16.10
2009,05,23,13,54,16.10
2009,05,23,13,55,16.20
2009,05,23,13,56,16.30
2009,05,23,13,57,16.40
2009,05,23,13,58,16.60
2009,05,23,13,59,16.60
2009,05,23,14,00,16.60
2009,05,23,14,01,16.70
2009,05,23,14,02,16.70
2009,05,23,14,03,16.60
2009,05,23,14,04,16.50
2009,05,23,14,05,16.40
2009,05,23,14,06,16.40
2009,05,23,14,07,16.60
2009,05,23,14,08,16.80
2009,05,23,14,09,16.90
2009,05,23,14,10,16.90
2009,05,23,14,11,16.90
2009,05,23,14,12,16.90
2009,05,23,14,13,17.00
2009,05,23,14,14,17.00
2009,05,23,14,15,17.00
2009,05,23,14,16,17.10
2009,05,23,14,17,17.20
2009,05,23,14,18,17.20
2009,05,23,14,19,17.20
2009,05,23,14,20,17.30
2009,05,23,14,21,17.30
2009,05,23,14,22,17.20
2009,05,23,14,23,17.20
2009,05,23,14,24,17.20
2009,05,23,14,25,17.30
2009,05,23,14,26,17.30
2009,05,23,14,27,17.40
2009,05,23,14,28,17.40
2009,05,23,14,29,17.50
2009,05,23,14,30,17.50
2009,05,23,14,31,17.60
2009,05,23,14,32,17.70
2009,05,23,14,33,17.80
2009,05,23,14,34,17.90
2009,05,23,14,35,17.90
2009,05,23,14,36,18.00
2009,05,23,14,37,17.90
2009,05,23,14,38,17.90
2009,05,23,14,39,17.80
2009,05,23,14,40,17.80
2009,05,23,14,41,17.80
2009,05,23,14,42,17.80
2009,05,23,14,43,17.90
2009,05,23,14,44,17.90
2009,05,23,14,45,17.90
2009,05,23,14,46,17.90
2009,05,23,14,47,17.80
2009,05,23,14,48,17.70
2009,05,23,14,49,17.60
2009,05,23,14,50,17.50
2009,05,23,14,51,17.50
2009,05,23,14,52,17.40
2009,05,23,14,53,17.50
2009,05,23,14,54,17.50
2009,05,23,14,55,17.70
2009,05,23,14,56,17.70
2009,05,23,14,57,17.80
2009,05,23,14,58,17.70
2009,05,23,14,59,17.60
2009,05,23,15,00,17.60
2009,05,23,15,01,17.60
2009,05,23,15,02,17.70
2009,05,23,15,03,17.80
2009,05,23,15,04,18.00
2009,05,23,15,05,18.10
2009,05,23,15,06,18.30
2009,05,23,15,07,18.40
2009,05,23,15,08,18.40
2009,05,23,15,09,18.40
2009,05,23,15,10,18.40
2009,05,23,15,11,18.50
2009,05,23,15,12,18.50
2009,05,23,15,13,18.40
2009,05,23,15,14,18.30
2009,05,23,15,15,18.20
2009,05,23,15,16,18.10
2009,05,23,15,17,18.00
2009,05,23,15,18,18.00
2009,05,23,15,19,18.10
2009,05,23,15,20,18.20
2009,05,23,15,21,18.10
2009,05,23,15,22,18.10
2009,05,23,15,23,18.10
2009,05,23,15,24,18.20
2009,05,23,15,25,18.40
2009,05,23,15,26,18.50
2009,05,23,15,27,18.50
2009,05,23,15,28,18.50
2009,05,23,15,29,18.50
2009,05,23,15,30,18.50
2009,05,23,15,31,18.40
2009,05,23,15,32,18.30
2009,05,23,15,33,18.20
2009,05,23,15,34,18.20
2009,05,23,15,35,18.20
2009,05,23,15,36,18.20
2009,05,23,15,37,18.20
2009,05,23,15,38,18.30
2009,05,23,15,39,18.20
2009,05,23,15,40,18.30
2009,05,23,15,41,18.30
2009,05,23,15,42,18.40
2009,05,23,15,43,18.40
2009,05,23,15,44,18.40
2009,05,23,15,45,18.40
2009,05,23,15,46,18.40
2009,05,23,15,47,18.50
2009,05,23,15,48,18.50
2009,05,23,15,49,18.50
2009,05,23,15,50,18.50
2009,05,23,15,51,18.40
2009,05,23,15,52,18.50
2009,05,23,15,53,18.50
2009,05,23,15,54,18.50
2009,05,23,15,55,18.50
2009,05,23,15,56,18.50
2009,05,23,15,57,18.60
2009,05,23,15,58,18.60
2009,05,23,15,59,18.60
2009,05,23,16,00,18.70
2009,05,23,16,01,18.70
2009,05,23,16,02,18.80
2009,05,23,16,03,18.90
2009,05,23,16,04,18.90
2009,05,23,16,05,19.00
2009,05,23,16,06,19.10
2009,05,23,16,07,19.30
2009,05,23,16,08,19.30
2009,05,23,16,09,19.20
2009,05,23,16,10,19.20
2009,05,23,16,11,19.20
2009,05,23,16,12,19.20
2009,05,23,16,13,19.20
2009,05,23,16,14,19.30
2009,05,23,16,15,19.30
2009,05,23,16,16,19.30
2009,05,23,16,17,19.40
2009,05,23,16,18,19.50
2009,05,23,16,19,19.70
2009,05,23,16,20,19.80
2009,05,23,16,21,20.00
2009,05,23,16,22,20.10
2009,05,23,16,23,20.30
2009,05,23,16,24,20.40
2009,05,23,16,25,20.40
2009,05,23,16,26,20.30
2009,05,23,16,27,20.40
2009,05,23,16,28,20.50
2009,05,23,16,29,20.60
2009,05,23,16,30,20.70
2009,05,23,16,31,20.70
2009,05,23,16,32,20.60
2009,05,23,16,33,20.60
2009,05,23,16,34,20.60
2009,05,23,16,35,20.60
2009,05,23,16,36,20.60
2009,05,23,16,37,20.60
2009,05,23,16,38,20.70
2009,05,23,16,39,20.80
2009,05,23,16,40,20.80
2009,05,23,16,41,20.80
2009,05,23,16,42,20.80
2009,05,23,16,43,20.80
2009,05,23,16,44,20.60
2009,05,23,16,45,20.50
2009,05,23,16,46,20.50
2009,05,23,16,47,20.50
2009,05,23,16,48,20.50
2009,05,23,16,49,20.40
2009,05,23,16,50,20.30
2009,05,23,16,51,20.30
2009,05,23,16,52,20.30
2009,05,23,16,53,20.30
2009,05,23,16,54,20.30
2009,05,23,16,55,20.30
2009,05,23,16,56,20.30
2009,05,23,16,57,20.30
2009,05,23,16,58,20.20
2009,05,23,16,59,20.10
2009,05,23,17,00,20.10
2009,05,23,17,01,20.10
2009,05,23,17,02,20.10
2009,05,23,17,03,20.10
2009,05,23,17,04,20.10
2009,05,23,17,05,20.10
2009,05,23,17,06,20.00
2009,05,23,17,07,19.90
2009,05,23,17,08,20.00
2009,05,23,17,09,20.10
2009,05,23,17,10,20.10
2009,05,23,17,11,20.10
2009,05,23,17,12,20.10
2009,05,23,17,13,20.10
2009,05,23,17,14,20.20
2009,05,23,17,15,20.20
2009,05,23,17,16,20.20
2009,05,23,17,17,20.30
2009,05,23,17,18,20.40
2009,05,23,17,19,20.60
2009,05,23,17,20,20.60
2009,05,23,17,21,20.60
2009,05,23,17,22,20.60
2009,05,23,17,23,20.60
2009,05,23,17,24,20.70
2009,05,23,17,25,20.50
2009,05,23,17,26,20.40
2009,05,23,17,27,20.30
2009,05,23,17,28,20.30
2009,05,23,17,29,20.40
2009,05,23,17,30,20.50
2009,05,23,17,31,20.50
2009,05,23,17,32,20.60
2009,05,23,17,33,20.60